H1 CPF 2 NER 2023 11 11 9 315 01 glonass129 H2 1106402 9129 37868 2023 11 11 0 0 0 2023 11 14 23 45 0 900 1 1 0 0 0 1 H9 10 0 60259 0.00000 0 -6188028.987 9856914.112 22737870.471 10 0 60259 900.00000 0 -7856378.639 7584336.529 23087200.437 10 0 60259 1800.00000 0 -9697396.938 5428106.224 22989831.339 10 0 60259 2700.00000 0 -11664522.012 3440302.391 22447414.274 10 0 60259 3600.00000 0 -13702991.154 1663841.715 21470190.067 10 0 60259 4500.00000 0 -15751966.888 130894.945 20076813.628 10 0 60259 5400.00000 0 -17746937.735 -1138241.910 18294017.762 10 0 60259 6300.00000 0 -19622295.881 -2135774.369 16156120.763 10 0 60259 7200.00000 0 -21313985.698 -2866507.253 13704385.058 10 0 60259 8100.00000 0 -22762113.212 -3347408.283 10986237.172 10 0 60259 9000.00000 0 -23913407.156 -3606654.660 8054362.252 10 0 60259 9900.00000 0 -24723427.433 -3682201.719 4965689.405 10 0 60259 10800.00000 0 -25158426.593 -3619933.358 1780286.801 10 0 60259 11700.00000 0 -25196783.855 -3471472.294 -1439812.029 10 0 60259 12600.00000 0 -24829948.897 -3291743.313 -4631827.209 10 0 60259 13500.00000 0 -24062853.317 -3136393.970 -7733471.817 10 0 60259 14400.00000 0 -22913770.376 -3059183.906 -10684185.686 10 0 60259 15300.00000 0 -21413627.481 -3109455.798 -13426337.507 10 0 60259 16200.00000 0 -19604799.578 -3329797.731 -15906369.756 10 0 60259 17100.00000 0 -17539434.184 -3753998.659 -18075862.097 10 0 60259 18000.00000 0 -15277379.129 -4405385.957 -19892490.795 10 0 60259 18900.00000 0 -12883801.186 -5295617.346 -21320864.131 10 0 60259 19800.00000 0 -10426596.894 -6423979.724 -22333216.815 10 0 60259 20700.00000 0 -7973705.576 -7777225.323 -22909949.555 10 0 60259 21600.00000 0 -5590438.251 -9329952.285 -23040003.572 10 0 60259 22500.00000 0 -3336934.876 -11045513.356 -22721063.510 10 0 60259 23400.00000 0 -1265856.378 -12877413.736 -21959585.828 10 0 60259 24300.00000 0 579592.737 -14771138.364 -20770653.470 10 0 60259 25200.00000 0 2167230.026 -16666330.914 -19177661.111 10 0 60259 26100.00000 0 3476985.631 -18499232.110 -17211838.623 10 0 60259 27000.00000 0 4501474.853 -20205274.418 -14911623.495 10 0 60259 27900.00000 0 5246031.928 -21721724.063 -12321895.769 10 0 60259 28800.00000 0 5728206.901 -22990259.697 -9493091.547 10 0 60259 29700.00000 0 5976749.982 -23959380.295 -6480213.269 10 0 60259 30600.00000 0 6030128.973 -24586542.387 -3341756.632 10 0 60259 31500.00000 0 5934644.586 -24839938.450 -138575.431 10 0 60259 32400.00000 0 5742224.763 -24699843.599 3067293.641 10 0 60259 33300.00000 0 5507991.967 -24159475.855 6213823.722 10 0 60259 34200.00000 0 5287706.306 -23225335.550 9240185.567 10 0 60259 35100.00000 0 5135191.891 -21917010.972 12087908.402 10 0 60259 36000.00000 0 5099854.055 -20266459.178 14701992.675 10 0 60259 36900.00000 0 5224390.825 -18316792.289 17031954.711 10 0 60259 37800.00000 0 5542793.781 -16120619.451 19032784.756 10 0 60259 38700.00000 0 6078721.316 -13738012.523 20665801.599 10 0 60259 39600.00000 0 6844312.046 -11234178.515 21899388.806 10 0 60259 40500.00000 0 7839488.158 -8676933.460 22709599.633 10 0 60259 41400.00000 0 9051778.650 -6134080.328 23080619.845 10 0 60259 42300.00000 0 10456671.306 -3670797.468 23005079.810 10 0 60259 43200.00000 0 12018480.857 -1347143.793 22484209.653 10 0 60259 44100.00000 0 13691699.679 784217.559 21527833.616 10 0 60259 45000.00000 0 15422777.450 2679983.763 20154202.341 10 0 60259 45900.00000 0 17152258.290 4307784.045 18389664.474 10 0 60259 46800.00000 0 18817188.622 5647293.202 16268181.762 10 0 60259 47700.00000 0 20353696.942 6690839.916 13830694.785 10 0 60259 48600.00000 0 21699638.723 7443483.537 11124349.413 10 0 60259 49500.00000 0 22797195.847 7922555.014 8201597.109 10 0 60259 50400.00000 0 23595320.832 8156680.137 5119185.176 10 0 60259 51300.00000 0 24051921.675 8184325.427 1937055.777 10 0 60259 52200.00000 0 24135693.286 8051927.580 -1282824.946 10 0 60259 53100.00000 0 23827515.887 7811685.766 -4477684.241 10 0 60259 54000.00000 0 23121358.801 7519111.057 -7585181.682 10 0 60259 54900.00000 0 22024649.106 7230438.262 -10544643.837 10 0 60259 55800.00000 0 20558087.583 7000011.921 -13298268.546 10 0 60259 56700.00000 0 18754918.307 6877759.591 -15792273.258 10 0 60259 57600.00000 0 16659681.921 6906862.006 -17977962.990 10 0 60259 58500.00000 0 14326505.062 7121721.168 -19812695.357 10 0 60259 59400.00000 0 11816998.401 7546314.404 -21260722.525 10 0 60259 60300.00000 0 9197852.549 8193005.546 -22293892.893 10 0 60259 61200.00000 0 6538233.834 9061864.365 -22892198.517 10 0 60259 62100.00000 0 3907090.132 10140523.301 -23044157.884 10 0 60259 63000.00000 0 1370480.294 11404577.218 -22747027.272 10 0 60259 63900.00000 0 -1010960.858 12818508.597 -22006837.645 10 0 60259 64800.00000 0 -3184316.400 14337098.116 -20838257.699 10 0 60259 65700.00000 0 -5106345.289 15907260.056 -19264287.179 10 0 60259 66600.00000 0 -6745024.441 17470224.138 -17315787.975 10 0 60259 67500.00000 0 -8080612.897 18963971.098 -15030863.591 10 0 60259 68400.00000 0 -9106196.525 20325818.980 -12454100.387 10 0 60259 69300.00000 0 -9827693.689 21495051.213 -9635686.583 10 0 60259 70200.00000 0 -10263324.980 22415476.317 -6630427.066 10 0 60259 71100.00000 0 -10442572.456 23037812.387 -3496673.868 10 0 60259 72000.00000 0 -10404674.861 23321797.288 -295193.468 10 0 60259 72900.00000 0 -10196724.369 23237937.329 2912006.999 10 0 60259 73800.00000 0 -9871446.434 22768822.575 6062872.185 10 0 60259 74700.00000 0 -9484757.024 21909955.050 9096487.089 10 0 60259 75600.00000 0 -9093200.139 20670056.431 11954239.716 10 0 60259 76500.00000 0 -8751372.944 19070843.180 14580936.648 10 0 60259 77400.00000 0 -8509445.840 17146278.826 16925851.422 10 0 60259 78300.00000 0 -8410880.512 14941334.308 18943687.157 10 0 60259 79200.00000 0 -8490440.575 12510307.078 20595436.531 10 0 60259 80100.00000 0 -8772577.354 9914767.331 21849124.039 10 0 60259 81000.00000 0 -9270257.932 7221214.668 22680417.527 10 0 60259 81900.00000 0 -9984284.695 4498540.038 23073098.092 10 0 60259 82800.00000 0 -10903135.662 1815395.756 23019379.657 10 0 60259 83700.00000 0 -12003333.796 -762419.800 22520071.847 10 0 60259 84600.00000 0 -13250331.964 -3174456.503 21584582.231 10 0 60259 85500.00000 0 -14599879.059 -5367883.911 20230756.494 10 0 60260 0.00000 0 -15999812.700 -7299446.377 18484558.013 10 0 60260 900.00000 0 -17392206.809 -8937021.904 16379589.808 10 0 60260 1800.00000 0 -18715784.388 -10260717.013 13956468.364 10 0 60260 2700.00000 0 -19908498.339 -11263454.623 11262056.063 10 0 60260 3600.00000 0 -20910170.847 -11951026.637 8348567.502 10 0 60260 4500.00000 0 -21665080.872 -12341608.925 5272564.759 10 0 60260 5400.00000 0 -22124389.694 -12464757.871 2093860.440 10 0 60260 6300.00000 0 -22248300.429 -12359930.086 -1125650.292 10 0 60260 7200.00000 0 -22007858.053 -12074587.549 -4323205.368 10 0 60260 8100.00000 0 -21386311.270 -11661968.798 -7436414.292 10 0 60260 9000.00000 0 -20379976.030 -11178621.537 -10404493.656 10 0 60260 9900.00000 0 -18998561.799 -10681802.891 -13169473.519 10 0 60260 10800.00000 0 -17264944.876 -10226859.508 -15677349.077 10 0 60260 11700.00000 0 -15214396.974 -9864700.827 -17879153.118 10 0 60260 12600.00000 0 -12893300.948 -9639474.841 -19731926.579 10 0 60260 13500.00000 0 -10357407.715 -9586546.728 -21199566.941 10 0 60260 14400.00000 0 -7669708.112 -9730867.473 -22253537.133 10 0 60260 15300.00000 0 -4898009.900 -10085802.416 -22873420.784 10 0 60260 16200.00000 0 -2112322.357 -10652469.540 -23047313.250 10 0 60260 17100.00000 0 617841.220 -11419615.147 -22772041.490 10 0 60260 18000.00000 0 3226129.850 -12364031.327 -22053209.546 10 0 60260 18900.00000 0 5651878.675 -13451496.382 -20905070.038 10 0 60260 19800.00000 0 7842385.528 -14638197.142 -19350225.661 10 0 60260 20700.00000 0 9754846.562 -15872571.717 -17419167.973 10 0 60260 21600.00000 0 11357872.118 -17097493.751 -15149663.967 10 0 60260 22500.00000 0 12632522.100 -18252705.119 -12586003.674 10 0 60260 23400.00000 0 13572820.560 -19277393.969 -9778124.682 10 0 60260 24300.00000 0 14185731.197 -20112809.384 -6780631.535 10 0 60260 25200.00000 0 14490598.041 -20704802.919 -3651729.777 10 0 60260 26100.00000 0 14518077.772 -21006190.768 -452095.799 10 0 60260 27000.00000 0 14308611.071 -20978838.312 2756295.519 10 0 60260 27900.00000 0 13910499.180 -20595380.708 5911362.890 10 0 60260 28800.00000 0 13377667.774 -19840508.605 8952107.904 10 0 60260 29700.00000 0 12767212.650 -18711766.242 11819779.465 10 0 60260 30600.00000 0 12136830.208 -17219829.369 14458992.130 10 0 60260 31500.00000 0 11542239.938 -15388251.767 16818778.201 10 0 60260 32400.00000 0 11034705.972 -13252690.760 18853554.920 10 0 60260 33300.00000 0 10658760.366 -10859643.183 20523989.790 10 0 60260 34200.00000 0 10450222.302 -8264742.938 21797748.861 10 0 60260 35100.00000 0 10434595.199 -5530688.884 22650114.876 10 0 60260 36000.00000 0 10625908.365 -2724886.637 23064464.268 10 0 60260 36900.00000 0 11026051.810 83100.581 23032594.220 10 0 60260 37800.00000 0 11624632.853 2824188.999 22554893.284 10 0 60260 38700.00000 0 12399362.029 5432392.426 21640351.527 10 0 60260 39600.00000 0 13316954.151 7847314.836 20306408.621 10 0 60260 40500.00000 0 14334509.163 10016415.381 18578641.047 10 0 60260 41400.00000 0 15401317.363 11896952.452 16490292.267 10 0 60260 42300.00000 0 16461015.508 13457525.876 14081652.729 10 0 60260 43200.00000 0 17454005.020 14679152.378 11399299.493 10 0 60260 44100.00000 0 18320031.722 15555828.354 8495208.278 10 0 60260 45000.00000 0 19000818.691 16094555.097 5425753.757 10 0 60260 45900.00000 0 19442640.640 16314824.179 2250616.662 10 0 60260 46800.00000 0 19598729.693 16247583.619 -968381.238 10 0 60260 47700.00000 0 19431408.789 15933727.854 -4168491.005 10 0 60260 48600.00000 0 18913859.936 15422175.284 -7287274.505 10 0 60260 49500.00000 0 18031449.790 14767615.334 -10263840.665 10 0 60260 50400.00000 0 16782553.772 14028021.626 -13040053.919 10 0 60260 51300.00000 0 15178841.583 13262038.324 -15561689.169 10 0 60260 52200.00000 0 13245010.168 12526352.386 -17779508.717 10 0 60260 53100.00000 0 11017974.244 11873165.121 -19650238.345 10 0 60260 54000.00000 0 8545547.897 11347872.040 -21137422.197 10 0 60260 54900.00000 0 5884672.775 10987050.750 -22212138.899 10 0 60260 55800.00000 0 3099267.772 10816842.957 -22853564.635 10 0 60260 56700.00000 0 257791.142 10851799.370 -23049372.416 10 0 60260 57600.00000 0 -2569382.117 11094235.930 -22795960.418 10 0 60260 58500.00000 0 -5312657.271 11534127.699 -22098505.967 10 0 60260 59400.00000 0 -7905878.340 12149543.436 -20970845.461 10 0 60260 60300.00000 0 -10288837.378 12907600.872 -19435183.976 10 0 60260 61200.00000 0 -12409530.655 13765900.540 -17521641.767 10 0 60260 62100.00000 0 -14226069.152 14674375.928 -15267647.965 10 0 60260 63000.00000 0 -15708165.725 15577480.445 -12717194.586 10 0 60260 63900.00000 0 -16838139.435 16416617.793 -9919966.644 10 0 60260 64800.00000 0 -17611398.049 17132712.641 -6930366.188 10 0 60260 65700.00000 0 -18036381.608 17668813.017 -3806449.990 10 0 60260 66600.00000 0 -18133972.478 17972615.106 -608801.951 10 0 60260 67500.00000 0 -17936399.345 17998804.795 2600637.783 10 0 60260 68400.00000 0 -17485683.388 17711118.473 5759764.529 10 0 60260 69300.00000 0 -16831693.458 17084037.581 8807499.071 10 0 60260 70200.00000 0 -16029892.818 16104046.888 11684953.845 10 0 60260 71100.00000 0 -15138872.168 14770404.594 14336554.019 10 0 60260 72000.00000 0 -14217772.025 13095392.555 16711093.256 10 0 60260 72900.00000 0 -13323701.494 11104036.127 18762705.418 10 0 60260 73800.00000 0 -12509260.286 8833304.606 20451735.165 10 0 60260 74700.00000 0 -11820266.258 6330824.326 21745492.201 10 0 60260 75600.00000 0 -11293782.240 3653155.938 22618875.967 10 0 60260 76500.00000 0 -10956523.674 863705.037 23054859.674 10 0 60260 77400.00000 0 -10823713.140 -1969649.940 23044824.786 10 0 60260 78300.00000 0 -10898429.802 -4777116.980 22588739.337 10 0 60260 79200.00000 0 -11171481.791 -7489633.590 21695175.934 10 0 60260 80100.00000 0 -11621808.260 -10041486.410 20381167.750 10 0 60260 81000.00000 0 -12217396.148 -12372800.416 18671903.521 10 0 60260 81900.00000 0 -12916675.370 -14431795.442 16600265.285 10 0 60260 82800.00000 0 -13670335.989 -16176716.417 14206215.569 10 0 60260 83700.00000 0 -14423492.868 -17577356.582 11536043.658 10 0 60260 84600.00000 0 -15118108.019 -18616109.092 8641483.602 10 0 60260 85500.00000 0 -15695569.161 -19288501.696 5578719.623 10 0 60261 0.00000 0 -16099315.421 -19603190.603 2407297.641 10 0 60261 900.00000 0 -16277398.341 -19581412.527 -811037.861 10 0 60261 1800.00000 0 -16184867.568 -19255916.682 -4013554.161 10 0 60261 2700.00000 0 -15785878.572 -18669421.829 -7137768.825 10 0 60261 3600.00000 0 -15055429.852 -17872663.233 -10122686.405 10 0 60261 4500.00000 0 -13980653.513 -16922113.111 -12910008.867 10 0 60261 5400.00000 0 -12561601.933 -15877472.345 -15445293.783 10 0 60261 6300.00000 0 -10811495.022 -14799041.356 -17679035.639 10 0 60261 7200.00000 0 -8756415.977 -13745083.323 -19567647.372 10 0 60261 8100.00000 0 -6434467.312 -12769293.189 -21074321.604 10 0 60261 9000.00000 0 -3894422.293 -11918481.041 -22169753.929 10 0 60261 9900.00000 0 -1193928.586 -11230568.854 -22832713.765 10 0 60261 10800.00000 0 1602659.980 -10732985.671 -23050451.848 10 0 60261 11700.00000 0 4426732.019 -10441528.702 -22818937.068 10 0 60261 12600.00000 0 7208044.395 -10359737.500 -22142919.039 10 0 60261 13500.00000 0 9877415.020 -10478806.125 -21035816.491 10 0 60261 14400.00000 0 12369370.146 -10778035.058 -19519435.077 10 0 60261 15300.00000 0 14624636.044 -11225801.677 -17623521.632 10 0 60261 16200.00000 0 16592372.126 -11781006.155 -15385165.019 10 0 60261 17100.00000 0 18232053.940 -12394929.762 -12848056.586 10 0 60261 18000.00000 0 19514929.532 -13013425.478 -10061625.872 10 0 60261 18900.00000 0 20424990.934 -13579347.234 -7080069.341 10 0 60261 19800.00000 0 20959423.020 -14035114.602 -3961291.752 10 0 60261 20700.00000 0 21128513.813 -14325304.573 -765781.209 10 0 60261 21600.00000 0 20955032.796 -14399161.427 2444560.147 10 0 60261 22500.00000 0 20473105.652 -14212919.713 5607607.377 10 0 60261 23400.00000 0 19726634.489 -13731843.496 8662203.350 10 0 60261 24300.00000 0 18767330.976 -12931897.182 11549326.604 10 0 60261 25200.00000 0 17652445.327 -11800978.690 14213215.112 10 0 60261 26100.00000 0 16442286.095 -10339663.887 16602425.678 10 0 60261 27000.00000 0 15197633.816 -8561431.299 18670810.140 10 0 60261 27900.00000 0 13977155.437 -6492357.229 20378391.272 10 0 60261 28800.00000 0 12834926.119 -4170292.918 21692122.993 10 0 60261 29700.00000 0 11818160.366 -1643556.232 22586521.634 10 0 60261 30600.00000 0 10965245.837 1030810.051 23044157.029 10 0 60261 31500.00000 0 10304160.924 3789143.769 23055994.419 10 0 60261 32400.00000 0 9851341.668 6563548.280 22621580.507 10 0 60261 33300.00000 0 9611045.494 9284460.758 21749069.324 10 0 60261 34200.00000 0 9575239.120 11883299.944 20455086.146 10 0 60261 35100.00000 0 9724016.637 14295085.585 18764430.316 10 0 60261 36000.00000 0 10026531.956 16460922.233 16709620.573 10 0 60261 36900.00000 0 10442408.353 18330244.691 14330289.449 10 0 60261 37800.00000 0 10923567.676 19862731.491 11672436.200 10 0 60261 38700.00000 0 11416403.625 21029805.723 8787550.798 10 0 60261 39600.00000 0 11864208.352 21815659.084 5731624.474 10 0 60261 40500.00000 0 12209750.037 22217754.640 2564065.136 10 0 60261 41400.00000 0 12397891.772 22246785.523 -653461.537 10 0 60261 42300.00000 0 12378139.471 21926089.893 -3858242.236 10 0 60261 43200.00000 0 12107008.725 21290545.835 -6987752.754 10 0 60261 44100.00000 0 11550107.764 20384992.451 -9980895.608 10 0 60261 45000.00000 0 10683845.433 19262244.123 -12779212.412 10 0 60261 45900.00000 0 9496689.056 17980782.762 -15328045.248 10 0 60261 46800.00000 0 7989916.458 16602226.997 -17577622.364 10 0 60261 47700.00000 0 6177828.292 15188687.011 -19484045.151 10 0 60261 48600.00000 0 4087410.293 13800118.562 -21010155.785 10 0 60261 49500.00000 0 1757458.801 12491789.549 -22126267.680 10 0 60261 50400.00000 0 -762793.819 11311967.272 -22810744.122 10 0 60261 51300.00000 0 -3415495.903 10299924.527 -23050413.967 10 0 60261 52200.00000 0 -6136358.615 9484348.527 -22840816.931 10 0 60261 53100.00000 0 -8857111.354 8882218.891 -22186274.692 10 0 60261 54000.00000 0 -11508127.142 8498200.489 -21099787.711 10 0 60261 54900.00000 0 -14021107.922 8324574.691 -19602761.214 10 0 60261 55800.00000 0 -16331717.623 8341709.513 -17724567.222 10 0 60261 56700.00000 0 -18382053.628 8519046.306 -15501952.591 10 0 60261 57600.00000 0 -20122854.588 8816558.847 -12978305.994 10 0 60261 58500.00000 0 -21515353.986 9186621.093 -10202799.302 10 0 60261 59400.00000 0 -22532704.169 9576202.921 -7229421.084 10 0 60261 60300.00000 0 -23160913.772 9929299.924 -4115921.725 10 0 60261 61200.00000 0 -23399261.972 10189493.995 -922691.162 10 0 60261 62100.00000 0 -23260174.849 10302536.521 2288408.851 10 0 60261 63000.00000 0 -22768571.445 10218845.607 5455235.502 10 0 60261 63900.00000 0 -21960708.888 9895812.832 8516556.144 10 0 60261 64800.00000 0 -20882576.373 9299823.362 11413217.817 10 0 60261 65700.00000 0 -19587905.995 8407905.459 14089273.675 10 0 60261 66600.00000 0 -18135883.738 7208940.897 16493045.964 10 0 60261 67500.00000 0 -16588655.738 5704385.932 18578106.686 10 0 60261 68400.00000 0 -15008732.869 3908472.495 20304158.705 10 0 60261 69300.00000 0 -13456400.462 1847880.411 21637801.881 10 0 60261 70200.00000 0 -11987239.504 -439107.179 22553170.832 10 0 60261 71100.00000 0 -10649860.961 -2903932.181 23032433.043 10 0 60261 72000.00000 0 -9483946.243 -5489521.053 23066138.175 10 0 60261 72900.00000 0 -8518674.459 -8132405.338 22653411.813 10 0 60261 73800.00000 0 -7771601.597 -10765118.232 21801989.203 10 0 60261 74700.00000 0 -7248038.565 -13318770.522 20528087.086 10 0 60261 75600.00000 0 -6940954.814 -15725701.373 18856114.348 10 0 60261 76500.00000 0 -6831412.798 -17922095.607 16818224.959 10 0 60261 77400.00000 0 -6889516.574 -19850459.581 14453719.598 10 0 60261 78300.00000 0 -7075836.349 -21461852.686 11808305.307 10 0 60261 79200.00000 0 -7343250.400 -22717780.755 8933225.510 10 0 60261 80100.00000 0 -7639127.805 -23591670.896 5884275.771 10 0 60261 81000.00000 0 -7907760.203 -24069864.281 2720723.439 10 0 60261 81900.00000 0 -8092939.409 -24152083.306 -495848.110 10 0 60261 82800.00000 0 -8140570.685 -23851351.661 -3702747.679 10 0 60261 83700.00000 0 -8001209.099 -23193369.203 -6837412.295 10 0 60261 84600.00000 0 -7632409.097 -22215367.047 -9838645.446 10 0 60261 85500.00000 0 -7000784.953 -20964490.917 -12647831.335 10 0 60262 0.00000 0 -6083692.052 -19495781.517 -15210099.170 10 0 60262 900.00000 0 -4870454.572 -17869837.386 -17475414.046 10 0 60262 1800.00000 0 -3363086.633 -16150262.313 -19399567.911 10 0 60262 2700.00000 0 -1576473.019 -14401004.071 -20945054.439 10 0 60262 3600.00000 0 461998.178 -12683700.202 -22081806.340 10 0 60262 4500.00000 0 2713336.480 -11055143.276 -22787781.722 10 0 60262 5400.00000 0 5128345.595 -9564973.318 -23049387.973 10 0 60262 6300.00000 0 7649456.588 -8253694.629 -22861735.527 10 0 60262 7200.00000 0 10212920.108 -7151099.893 -22228717.529 10 0 60262 8100.00000 0 12751265.173 -6275166.479 -21162915.136 10 0 60262 9000.00000 0 15195921.042 -5631469.383 -19685331.724 10 0 60262 9900.00000 0 17479892.243 -5213133.016 -17824962.709 10 0 60262 10800.00000 0 19540375.080 -5001321.086 -15618210.811 10 0 60262 11700.00000 0 21321206.919 -4966241.035 -13108159.548 10 0 60262 12600.00000 0 22775047.010 -5068618.006 -10343720.321 10 0 60262 13500.00000 0 23865199.330 -5261573.764 -7378670.705 10 0 60262 14400.00000 0 24567003.284 -5492829.449 -4270603.382 10 0 60262 15300.00000 0 24868736.352 -5707137.901 -1079806.649 10 0 60262 16200.00000 0 24771993.342 -5848842.249 2131901.620 10 0 60262 17100.00000 0 24291528.640 -5864452.764 5302364.129 10 0 60262 18000.00000 0 23454570.071 -5705133.744 8370275.883 10 0 60262 18900.00000 0 22299634.611 -5328996.422 11276355.268 10 0 60262 19800.00000 0 20874896.401 -4703102.374 13964473.067 10 0 60262 20700.00000 0 19236175.578 -3805094.078 16382718.994 10 0 60262 21600.00000 0 17444631.501 -2624384.841 18484386.792 10 0 60262 22500.00000 0 15564255.618 -1162858.388 20228860.581 10 0 60262 23400.00000 0 13659267.020 564951.546 21582386.917 10 0 60262 24300.00000 0 11791517.380 2532210.258 22518719.087 10 0 60262 25200.00000 0 10018011.404 4700646.992 23019622.233 10 0 60262 26100.00000 0 8388644.219 7021902.063 23075230.082 10 0 60262 27000.00000 0 6944248.421 9439303.002 22684246.393 10 0 60262 27900.00000 0 5715031.066 11889998.952 21853986.561 10 0 60262 28800.00000 0 4719465.370 14307367.540 20600257.378 10 0 60262 29700.00000 0 3963683.529 16623596.919 18947075.541 10 0 60262 30600.00000 0 3441396.747 18772337.696 16926228.224 10 0 60262 31500.00000 0 3134347.006 20691315.713 14576681.982 10 0 60262 32400.00000 0 3013272.973 22324797.294 11943849.146 10 0 60262 33300.00000 0 3039350.792 23625803.710 9078723.928 10 0 60262 34200.00000 0 3166050.197 24557981.107 6036903.419 10 0 60262 35100.00000 0 3341328.209 25097045.852 2877511.515 10 0 60262 36000.00000 0 3510067.701 25231742.583 -337953.642 10 0 60262 36900.00000 0 3616656.813 24964272.532 -3546825.856 10 0 60262 37800.00000 0 3607598.511 24310172.170 -6686506.161 10 0 60262 38700.00000 0 3434037.527 23297645.806 -9695701.584 10 0 60262 39600.00000 0 3054094.990 21966379.371 -12515641.231 10 0 60262 40500.00000 0 2434909.022 20365885.280 -15091243.874 10 0 60262 41400.00000 0 1554292.095 18553448.600 -17372212.228 10 0 60262 42300.00000 0 401932.500 16591762.227 -19314030.657 10 0 60262 43200.00000 0 -1019912.861 14546352.096 -20878845.418 10 0 60262 44100.00000 0 -2696265.113 12482902.370 -22036209.325 10 0 60262 45000.00000 0 -4599816.725 10464594.576 -22763675.830 10 0 60262 45900.00000 0 -6691855.179 8549573.535 -23047231.082 10 0 60262 46800.00000 0 -8923677.919 6788646.991 -22881556.121 10 0 60262 47700.00000 0 -11238438.521 5223315.227 -22270115.072 10 0 60262 48600.00000 0 -13573345.871 3884212.368 -21225068.888 10 0 60262 49500.00000 0 -15862123.465 2790022.946 -19767017.768 10 0 60262 50400.00000 0 -18037625.220 1946916.871 -17924578.789 10 0 60262 51300.00000 0 -20034498.096 1348523.645 -15733808.451 10 0 60262 52200.00000 0 -21791780.300 976443.819 -13237482.761 10 0 60262 53100.00000 0 -23255327.000 801273.077 -10484250.112 10 0 60262 54000.00000 0 -24379963.219 784092.959 -7527674.450 10 0 60262 54900.00000 0 -25131275.396 878362.952 -4425188.086 10 0 60262 55800.00000 0 -25486968.505 1032132.303 -1236975.020 10 0 60262 56700.00000 0 -25437734.030 1190477.012 1975193.377 10 0 60262 57600.00000 0 -24987594.539 1298058.684 5149147.911 10 0 60262 58500.00000 0 -24153712.334 1301697.326 8223513.759 10 0 60262 59400.00000 0 -22965671.751 1152850.239 11138883.107 10 0 60262 60300.00000 0 -21464266.105 809893.432 13838946.713 10 0 60262 61200.00000 0 -19699840.407 240110.586 16271563.942 10 0 60262 62100.00000 0 -17730258.764 -578693.145 18389752.244 10 0 60262 63000.00000 0 -15618580.304 -1657019.669 20152578.670 10 0 60262 63900.00000 0 -13430539.000 -2992997.875 21525937.801 10 0 60262 64800.00000 0 -11231930.436 -4572224.016 22483202.541 10 0 60262 65700.00000 0 -9086012.097 -6368130.558 23005736.228 10 0 60262 66600.00000 0 -7051023.194 -8342870.110 23083256.797 10 0 60262 67500.00000 0 -5177925.294 -10448680.162 22714045.915 10 0 60262 68400.00000 0 -3508456.189 -12629674.727 21904998.503 10 0 60262 69300.00000 0 -2073577.109 -14823991.316 20671510.430 10 0 60262 70200.00000 0 -892377.636 -16966206.736 19037204.904 10 0 60262 71100.00000 0 28515.722 -18989923.535 17033500.692 10 0 60262 72000.00000 0 695001.783 -20830420.999 14699028.317 10 0 60262 72900.00000 0 1125034.057 -22427261.008 12078903.231 10 0 60262 73800.00000 0 1347635.733 -23726739.900 9223868.027 10 0 60262 74700.00000 0 1401440.595 -24684082.838 6189318.732 10 0 60262 75600.00000 0 1332820.587 -25265287.134 3034233.074 10 0 60262 76500.00000 0 1193678.856 -25448535.036 -179978.834 10 0 60262 77400.00000 0 1039002.036 -25225114.196 -3390678.622 10 0 60262 78300.00000 0 924276.570 -24599804.783 -6535234.160 10 0 60262 79200.00000 0 902880.329 -23590714.896 -9552258.810 10 0 60262 80100.00000 0 1023562.447 -22228569.755 -12382829.302 10 0 60262 81000.00000 0 1328120.842 -20555483.829 -14971656.369 10 0 60262 81900.00000 0 1849378.544 -18623267.546 -17268183.221 10 0 60262 82800.00000 0 2609547.097 -16491340.503 -19227588.547 10 0 60262 83700.00000 0 3619048.433 -14224340.074 -20811672.988 10 0 60262 84600.00000 0 4875846.662 -11889527.326 -21989610.829 10 0 60262 85500.00000 0 6365318.995 -9554100.654 -22738551.766 99